Lexington Weather

Lexington, Massachusetts, USA

39°F
1/28/2023 9:19pm 
  • Lexington Conditions: Clear
  • Temperature: 38.8°F / 3.8°CColder 0.6°F than last hour.
  • Dew Point: 27.0°FDecreased 0.1°Fsince last hour.
  • Relative Humidity: 62%Increased 1.0% since last hour.
  • Wind: Calm, 10-min avg: Calm, gust: None
  • Barometer: 30.24 in Steady
  • Visibility: 10 miles
  • Rain Today: 0.00 in
  •   

Regional Weather Roundup
for Boston, MA

        
000
ASUS41 KBOX 280010
RWRBOX

REGIONAL WEATHER ROUNDUP
NATIONAL WEATHER SERVICE BOSTON/NORTON MA
700 PM EST FRI JAN 27 2023

NOTE:  "FAIR" INDICATES FEW OR NO CLOUDS BELOW 12,000 FEET WITH NO 
SIGNIFICANT WEATHER AND/OR OBSTRUCTIONS TO VISIBILITY.

MAZALL-280100-
EASTERN MASSACHUSETTS
  
CITY           SKY/WX    TMP DP  RH WIND       PRES   REMARKS
BOSTON         MOCLDY    35  26  69 SE6       30.17R WCI  30          
6HR MIN TEMP:  35; 6HR MAX TEMP:  42;                                

BEVERLY        CLOUDY    33  21  61 CALM      30.15R                  
LAWRENCE       CLOUDY    35  21  56 S3        30.16R                  
BEDFORD        CLOUDY    33  21  61 CALM      30.14R                  
NORWOOD        CLOUDY    35  28  75 CALM      30.16R                  
MARSHFIELD     CLEAR     30  27  86 S5        30.16R WCI  25          
PLYMOUTH       CLEAR     29  24  82 CALM      30.15R                  
TAUNTON          N/A    N/A N/A N/A MISG      30.16R                  
NEW BEDFORD    CLEAR     32  27  81 CALM      30.16R                  
$$

MAZALL-280100-
CAPE COD AND THE ISLANDS
  
CITY           SKY/WX    TMP DP  RH WIND       PRES   REMARKS
FALMOUTH       NOT AVBL                                               
HYANNIS        CLEAR     28  22  78 CALM      30.15R                  
CHATHAM        CLEAR     35  26  69 W3        30.17R                  
PROVINCETOWN   CLEAR     28  25  88 SE6       30.18R WCI  22          
NANTUCKET      CLEAR     32  25  75 SW7       30.17R WCI  26          
MARTHAS VNYRD  CLEAR     26  19  74 CALM      30.17R                  
$$
 
MAZALL-280100-
CENTRAL AND WESTERN MASSACHUSETTS
  
CITY           SKY/WX    TMP DP  RH WIND       PRES   REMARKS
WORCESTER      CLOUDY    32  21  64 CALM      30.09S                  
6HR MIN TEMP:  32; 6HR MAX TEMP:  37;                                

FITCHBURG      CLOUDY    29  21  72 CALM      30.14R                  
ORANGE         PTCLDY    27  21  78 CALM      30.12R                  
SPRINGFIELD    MOCLDY    35  23  61 S3        30.10S                  
WESTFIELD      PTCLDY    32  24  72 CALM      30.12R                  
NORTH ADAMS    PTCLDY    24  20  84 CALM      30.10R                  
PITTSFIELD     PTCLDY    29  21  72 CALM      30.06R                  
$$
 
RIZALL-280100-
RHODE ISLAND
  
CITY           SKY/WX    TMP DP  RH WIND       PRES   REMARKS
PROVIDENCE     MOCLDY    35  25  66 SW5       30.16R WCI  31          
6HR MIN TEMP:  34; 6HR MAX TEMP:  43;                                

NEWPORT        MOCLDY    33  25  72 CALM      30.15R                  
BLOCK ISLAND   CLOUDY    38  26  62 W10       30.17R WCI  31          
SMITHFIELD     CLOUDY    34  23  64 E3        30.14R                  
WESTERLY       CLOUDY    39  27  62 SW9       30.16R                  
$$
 
CTZALL-280100-
CONNECTICUT
  
CITY           SKY/WX    TMP DP  RH WIND       PRES   REMARKS
BRADLEY INTL   MOCLDY    37  23  56 SE6       30.13R                  
6HR MIN TEMP:  37; 6HR MAX TEMP:  43;                                

HARTFORD       CLOUDY    38  28  67 S6        30.14R                  
BRIDGEPORT     CLEAR     32  29  88 CALM      30.15S                  
DANBURY        CLEAR     32  26  78 CALM      30.14R                  
GROTON         MOCLDY    38  28  67 S6        30.16R                  
NEW HAVEN      CLOUDY    39  31  72 MISG      30.14S                  
CHESTER        FLURRIES  36  32  87 CALM      30.14R                  
MERIDEN        CLOUDY    36  29  75 CALM      30.15R                  
WILLIMANTIC    MOCLDY    36  26  67 SW3       30.14R                  
OXFORD         MIX PCPN  32  29  88 CALM      30.12S                  
$$

MEZ002-015-021-024-NHZ003-005-008-011-012-014-VTZ005-008-280100-
NORTHERN NEW ENGLAND
  
CITY           SKY/WX    TMP DP  RH WIND       PRES   REMARKS
PORTLAND ME    CLEAR     27  20  75 CALM      30.15R                  
6HR MIN TEMP:  26; 6HR MAX TEMP:  36;                                

BANGOR ME      PTCLDY    23  13  65 S3        30.14R                  
CONCORD NH     PTCLDY    28  18  66 E3        30.12R                  
MANCHESTER NH  PTCLDY    33  20  58 SE6       30.12R WCI  28          
NASHUA NH      PTCLDY    25  23  92 CALM      30.14S                  
PORTSMOUTH NH  MOCLDY    29  19  64 SE3       30.14R                  
JAFFREY NH     MOCLDY    23  19  85 CALM      30.09R                  
KEENE NH       MOCLDY    28  24  85 CALM      30.12R                  
BURLINGTON VT  CLOUDY    33  24  69 S10       30.04S WCI  25          
MT. WASHINGTON SNOWSHWR   5   5 100 W17         N/A  VSB 1/16WCI -14  
$$

NYZ052-076-280100-
EASTERN NEW YORK
  
CITY           SKY/WX    TMP DP  RH WIND       PRES   REMARKS
ALBANY         FLURRIES  33  23  66 S3        30.10R                  
NEW YORK CITY  MOCLDY    39  19  44 W5        30.15R                  
6HR MIN TEMP:  39; 6HR MAX TEMP:  44;                                

$$
 
ANZALL-280100-
MARINE OBSERVATIONS
  
STATION/POSITION TIME  TEMP    WIND        PRES    VSBY  WAVE
                       AIR SEA DIR/SP/G                  HT/PER
                 (UTC) (F)     (DEG/KT/KT) (MB)    (MI)  (FT/S)
BOSTON BUOY      2340      42                N/A           2/11
BUZZARDS BAY     2300   39     230/  8/  9 1021.4R
NANTUCKET SOUND  2350   40 42  240/ 10/ 10 1021.3R         1/ 3
MASS BAY-STELLWA 2204   38 42  160/  8/  8 1019.4R  1 7/8  3/11
ISLE OF SHOALS   2300   37     170/  9/ 10 1020.1R
S OF BLOCK IS    2326      45                N/A           5/ 9
$$

......................KEY.........................
  SKY/WX - SKY CONDITION/PRESENT WEATHER
  TMP    - TEMPERATURE IN FAHRENHEIT
  DWPT   - DEWPOINT IN FAHRENHEIT
  RH     - RELATIVE HUMIDITY IN PERCENT
  WIND   - DIRECTION AND SPEED IN MPH
  PRES   - MEAN SEA LEVEL PRESSURE IN INCHES OF HG
  WCI    - WIND CHILL INDEX
  VSB    - VISIBILITY IN MILES
  HX     - HEAT INDEX
  TC     - TEMPERATURE IN CELSIUS
  VRB    - VARIABLE WIND DIRECTION
  N/A    - NOT AVAILABLE
  
      

Other recent Regional Weather Roundups

Sat Jan 28, 8:10pm EST

Sat Jan 28, 7:10pm EST

Sat Jan 28, 6:10pm EST

Sat Jan 28, 5:10pm EST

Sat Jan 28, 4:10pm EST

Sat Jan 28, 3:10pm EST

Sat Jan 28, 2:10pm EST

Sat Jan 28, 1:10pm EST

Sat Jan 28, 12:10pm EST

Sat Jan 28, 11:10am EST

Sat Jan 28, 10:10am EST

Sat Jan 28, 9:10am EST

Sat Jan 28, 8:10am EST

Sat Jan 28, 7:10am EST

Sat Jan 28, 6:10am EST

Sat Jan 28, 5:10am EST

Sat Jan 28, 4:10am EST

Sat Jan 28, 3:10am EST

Sat Jan 28, 2:10am EST

Sat Jan 28, 1:10am EST

Sat Jan 28, 12:10am EST

Fri Jan 27, 11:10pm EST

Fri Jan 27, 10:10pm EST

Fri Jan 27, 9:10pm EST

Fri Jan 27, 8:10pm EST

Fri Jan 27, 6:10pm EST

Fri Jan 27, 5:10pm EST

Fri Jan 27, 4:10pm EST

Fri Jan 27, 3:10pm EST

Fri Jan 27, 2:10pm EST

Fri Jan 27, 1:10pm EST

Fri Jan 27, 12:10pm EST

Fri Jan 27, 11:10am EST

Fri Jan 27, 10:10am EST

Fri Jan 27, 9:10am EST

Fri Jan 27, 8:10am EST

Fri Jan 27, 7:10am EST

Fri Jan 27, 6:10am EST

Fri Jan 27, 5:10am EST

Fri Jan 27, 4:10am EST

Fri Jan 27, 3:10am EST

Fri Jan 27, 2:10am EST

Fri Jan 27, 1:10am EST

Fri Jan 27, 12:10am EST

Thu Jan 26, 11:10pm EST

Thu Jan 26, 10:10pm EST

Thu Jan 26, 9:10pm EST

Thu Jan 26, 8:10pm EST

Thu Jan 26, 7:10pm EST

Thu Jan 26, 6:10pm EST

Thu Jan 26, 5:10pm EST

Thu Jan 26, 4:10pm EST

Thu Jan 26, 3:10pm EST

Thu Jan 26, 2:10pm EST

Thu Jan 26, 1:10pm EST

Thu Jan 26, 12:10pm EST

Thu Jan 26, 11:10am EST

Thu Jan 26, 10:10am EST

Thu Jan 26, 9:10am EST

Thu Jan 26, 8:10am EST

Thu Jan 26, 7:10am EST

Thu Jan 26, 6:10am EST

Thu Jan 26, 5:10am EST

Thu Jan 26, 4:10am EST

Thu Jan 26, 3:10am EST

Thu Jan 26, 2:10am EST

Thu Jan 26, 1:10am EST

Thu Jan 26, 12:10am EST

Wed Jan 25, 11:10pm EST

Wed Jan 25, 10:10pm EST

Wed Jan 25, 9:10pm EST

Wed Jan 25, 8:10pm EST

Wed Jan 25, 7:10pm EST

Wed Jan 25, 6:10pm EST

Wed Jan 25, 5:10pm EST

Wed Jan 25, 4:10pm EST

Wed Jan 25, 3:10pm EST

Wed Jan 25, 2:10pm EST

Wed Jan 25, 1:10pm EST

Wed Jan 25, 12:10pm EST

Wed Jan 25, 11:10am EST

Wed Jan 25, 10:10am EST

Wed Jan 25, 9:10am EST

Wed Jan 25, 8:10am EST

Wed Jan 25, 7:10am EST

Wed Jan 25, 6:10am EST

Wed Jan 25, 5:10am EST

Wed Jan 25, 4:10am EST

Wed Jan 25, 3:10am EST

Wed Jan 25, 2:10am EST

Wed Jan 25, 1:10am EST

Wed Jan 25, 12:10am EST

Tue Jan 24, 11:10pm EST

Tue Jan 24, 10:10pm EST

Tue Jan 24, 9:10pm EST

Tue Jan 24, 8:10pm EST

Tue Jan 24, 7:10pm EST

Tue Jan 24, 6:10pm EST

Tue Jan 24, 5:10pm EST

Tue Jan 24, 4:10pm EST

Tue Jan 24, 3:10pm EST

Tue Jan 24, 2:10pm EST

Tue Jan 24, 1:10pm EST

Tue Jan 24, 12:10pm EST

Tue Jan 24, 11:10am EST

Tue Jan 24, 10:10am EST

Tue Jan 24, 9:10am EST

Tue Jan 24, 8:10am EST

Tue Jan 24, 7:10am EST

Tue Jan 24, 6:10am EST

Tue Jan 24, 5:10am EST

Tue Jan 24, 4:10am EST

Tue Jan 24, 3:10am EST

Tue Jan 24, 2:10am EST

Tue Jan 24, 1:10am EST

Tue Jan 24, 12:10am EST

Mon Jan 23, 11:10pm EST

Mon Jan 23, 10:10pm EST

Mon Jan 23, 9:10pm EST

Mon Jan 23, 8:10pm EST

Mon Jan 23, 7:10pm EST

Mon Jan 23, 6:10pm EST

Mon Jan 23, 5:10pm EST

Mon Jan 23, 4:10pm EST

Mon Jan 23, 3:10pm EST

Mon Jan 23, 2:10pm EST

Mon Jan 23, 1:10pm EST

Mon Jan 23, 12:10pm EST

Mon Jan 23, 11:10am EST

Mon Jan 23, 10:10am EST

Mon Jan 23, 9:10am EST

Mon Jan 23, 8:10am EST

Mon Jan 23, 7:10am EST

Mon Jan 23, 6:10am EST

Mon Jan 23, 5:10am EST

Mon Jan 23, 4:10am EST

Mon Jan 23, 3:10am EST

Mon Jan 23, 2:10am EST

Mon Jan 23, 1:10am EST

Mon Jan 23, 12:10am EST

Sun Jan 22, 11:10pm EST

Sun Jan 22, 10:10pm EST

Sun Jan 22, 9:10pm EST

Sun Jan 22, 8:10pm EST

Sun Jan 22, 7:10pm EST

Sun Jan 22, 6:10pm EST

Sun Jan 22, 5:10pm EST

Sun Jan 22, 4:10pm EST

Sun Jan 22, 3:10pm EST

Sun Jan 22, 2:10pm EST

Sun Jan 22, 1:10pm EST

Sun Jan 22, 12:10pm EST

Sun Jan 22, 11:10am EST

Sun Jan 22, 10:10am EST

Sun Jan 22, 9:10am EST

Sun Jan 22, 8:10am EST

Sun Jan 22, 7:10am EST

Sun Jan 22, 6:10am EST

Sun Jan 22, 5:10am EST

Sun Jan 22, 4:10am EST

Sun Jan 22, 3:10am EST

Sun Jan 22, 2:10am EST

Sun Jan 22, 1:10am EST

Sun Jan 22, 12:10am EST

Sat Jan 21, 11:10pm EST

Sat Jan 21, 10:10pm EST

Sat Jan 21, 9:10pm EST